Regional Weather Roundup
Issued by NWS

Home | Current Version | Previous Version | Text Only | Print | Product List | Glossary Off
Versions: 1 2 3 4 5 6 7 8 9 10 11 12 13 14 15 16 17 18 19 20 21 22 23 24 25 26 27 28 29 30 31 32 33 34 35 36 37 38 39 40 41 42 43 44 45 46 47 48 49 50

000
ASUS45 KSLC 030310
RWRUT
UTAH REGIONAL WEATHER ROUNDUP
NATIONAL WEATHER SERVICE SALT LAKE CITY UT
900 PM MDT SUN AUG 02 2015

UTZ001>011-023>025-030400-

NORTHERN UTAH

CITY           SKY/WX    TMP DP  RH WIND       PRES   REMARKS
BRIGHAM CITY   MOCLDY    82  42  24 CALM      29.96S
HILL AFB       CLOUDY    78  48  34 S13       30.00R
LOGAN          CLEAR     84  40  21 S8        29.93R
OGDEN          CLOUDY    80  47  31 S15       29.97R
PROVO AIRPORT  MOCLDY    72  52  49 E5        30.05R
SALT LAKE CITY CLOUDY    79  49  34 SE10      29.96R
VERNAL         LGT RAIN  74  49  41 W6        30.07R
WENDOVER       CLOUDY    82  45  26 S23G30    29.94R
HEBER CITY     CLOUDY    73  43  33 NW6       30.10R
WEST JORDAN    CLEAR     75  48  38 S12       30.00R

$$

UTZ012>022-026-027-030400-

SOUTHERN/CENTRAL UTAH

CITY           SKY/WX    TMP DP  RH WIND       PRES   REMARKS
BLANDING       CLOUDY    65  62  89 CALM      30.22R
BRYCE CANYON   MOCLDY    55  52  89 CALM      30.26F
CEDAR CITY     PTCLDY    71  48  43 NE7       30.08S
DELTA          CLOUDY    70  52  53 E6        30.04S
HANKSVILLE     CLOUDY    68  61  77 SW5       30.07S
MILFORD        CLOUDY    75  47  36 NW13      30.05R
MOAB/CYNLANDS  LGT RAIN  64  61  90 CALM      30.06F
PRICE          RAIN      63  58  83 S7        30.13S
ST GEORGE      CLOUDY    91  46  21 SW8       29.87S
KANAB          MOCLDY    73  54  49 NE5       30.13R

$$

REGIONAL REPORTS     COLORADO/ARIZONA

CITY           SKY/WX    TMP DP  RH WIND       PRES   REMARKS
CRAIG, CO      LGT RAIN  61  53  75 S17G23    30.17S
GRAND JUNCTION CLOUDY    65  61  87 E6        30.11R
RIFLE          LGT RAIN  63  59  87 S5        30.21S
MONTROSE       LGT RAIN  63  61  93 SW7       30.18F
CORTEZ         CLEAR     66  60  81 W7        30.15S
PAGE, AZ       MOCLDY    76  58  53 N8        30.04R
GRAND CANYON   CLEAR     66  53  63 CALM      30.20R
KINGMAN        CLEAR     90  44  20 W10       29.92S
FLAGSTAFF      PTCLDY    62  55  77 CALM      30.22S

$$

REGIONAL REPORTS    NEVADA/IDAHO/WYOMING

CITY           SKY/WX    TMP DP  RH WIND       PRES   REMARKS
LAS VEGAS, NV  PTCLDY   100  45  15 N6        29.75R HX  96
ELY            CLOUDY    69  43  38 SE9       30.16F
ELKO           CLOUDY    76  46  34 S8G21     30.02F
POCATELLO, ID  CLEAR     81  45  28 CALM      29.92S
BURLEY         PTCLDY    73  54  51 CALM      29.87F
EVANSTON, WY   CLOUDY    70  41  34 SW16      30.16R
ROCK SPRINGS   CLOUDY    76  32  20 SW8       30.11S
KEMMERER       MOCLDY   N/A N/A N/A CALM      30.15R

$$



USA.gov is the U.S. government's official web portal to all federal, state and local government web resources and services.